Showing default

COSMOS 1994, 19785

Orbit data source: Space-Track

COSMOS 1994, 19785 is a payload satellite owned by UNKS (CIS) in LEO that was launched on Fri, 10 Feb 1989 UTC via a TSIKLON-3 launch vehicle from the Plesetsk Missile And Space Complex (PKMTR). Payload-class satellites include a variety of spacecraft equipped with specific instruments for various scientific and technological missions. These include communications satellites like Starlink; space stations such as the ISS; scientific satellites like the Hubble; Earth observation satellites from companies like Planet Labs, Umbra, and HawkEye 360; GPS; miniature CubeSats for education and research; and military/defense satellites.

Loading next visibility...
Identifier
19785, 1989-009A
Orbit
LEO
Country
Flag of CISCIS
Related business
Manufacturer
NPO PM
Mission
Defense Communications
Bus & Motor
STRELA-3, Unknown motor
Mass
225 kg wet, 225 kg dry
Launch date (UTC)
1989-02-10 (37 years ago)
Launch vehicle
TSIKLON-3
Launch site
Plesetsk Missile And Space Complex (PKMTR)
Object type
Payload
Rocket body
Debris
Shape & HBR
Cyl, 0.8 m
Radar Cross Section
1.257 m², Large (>1 m²)

Expand to show TLE details & history
Last TLE update: 11 hours ago

TLE from 11 hours ago
0 COSMOS 1994
1 19785U 89009A   25258.84440418  .00000010  00000-0 -55983-5 0  9998
2 19785  82.6253 166.4981 0011966 211.6831 213.5175 12.64334478688714
Epoch: 2025-09-15T20:15Z
TLE epoch observation values (Epoch: 2025-09-15T20:15:56.521Z)
Latitude
64.20385°
Longitude
-117.07689°
Altitude
1,423.906 km
Speed
7.151 km/s
True Right ascension
12h 07m 48s
True Declination
64° 04' 49"
Sunlit
Object was in daylight at epoch
Visualization orbit readout
Latitude
Unknown
Longitude
Unknown
Altitude
Unknown
Speed
Unknown
Apparent Right ascension
Unknown
Apparent Declination
Unknown
Sunlit
N/A
Visualization observer readout
Local Sidereal Time
00:03:11
Azimuth
Unknown
Elevation
Unknown
Doppler factor
Unknown
Orbital elements
Apogee altitude
1,411.731 km
Perigee altitude
1,393.111 km
Semi-major axis
7,780.558 km
Eccentricity
0.0012
Inclination
82.6253°
RAAN
166.4981°
Arg. of periapsis
211.6831°
True anomaly
213.44188°
Mean anomaly
213.5175°
Eccentric anomaly
213.47968°
Mean motion
3.16247 °/min
Orbital period
113.83 mins
BSTAR
-0.0000055983
Loading maneuver chart data...
Computing Atmospheric mass density...
Loading historical data...
Loading historical data...
Loading historical data...
Loading historical data...
Loading historical data...
Loading historical data...
Loading historical data...

Documentation

Showing up to 5 results
|